DECAYED

RESURS P1 DEB, 60221 (Decayed)

Orbit data source: Space-Track

RESURS P1 DEB, 60221 was space debris in LEO originally from a Commonwealth of Independent States-origin launch on Tue, 25 Jun 2013 UTC launched from the Tyuratam Missile And Space Complex (TTMTR). Debris objects in space refer to the collection of defunct objects orbiting the Earth. Examples of debris include non-operational satellites, rocket bodies, and fragments generated from explosions, collisions, or faulty payload assembly.

Not visible in the next 10 days
Identifier
60221, 2013-030K
Orbit
Decayed
Country
Flag of CISCIS
Related business
Manufacturer
TSSKBP?
Mission
Decayed spacecraft
Bus & Motor
Unknown
Mass
Unknown
Launch date (UTC)
2013-06-25 (12 years ago)
Launch vehicle
Unknown
Launch site
Tyuratam Missile And Space Complex (TTMTR)
Object type
Payload
Rocket body
Debris
Shape & HBR
Unknown
Radar Cross Section
Small (<0.1 m²)

Expand to show TLE details & history
Last TLE update: 1 year ago

TLE from 1 year ago
0 RESURS P1 DEB
1 60221U 13030K   24194.64967505  .08299312  21891-5  39191-2 0  9995
2 60221  96.9685 245.0909 0013836 269.9832  89.9874 16.21309739  1619
Epoch: 2024-07-12T15:35Z
TLE epoch observation values (Epoch: 2024-07-12T15:35:31.924Z)
Latitude
0.00006°
Longitude
80.18495°
Altitude
219.248 km
Speed
7.775 km/s
True Right ascension
16h 20m 21s
True Declination
0° 00' 00"
Sunlit
Object was in full shadow at epoch
Visualization orbit readout
Latitude
Unknown
Longitude
Unknown
Altitude
Unknown
Speed
Unknown
Apparent Right ascension
Unknown
Apparent Declination
Unknown
Sunlit
N/A
Visualization observer readout
Local Sidereal Time
00:05:00
Azimuth
Unknown
Elevation
Unknown
Doppler factor
Unknown
Orbital elements
Apogee altitude
221.931 km
Perigee altitude
203.692 km
Semi-major axis
6,590.948 km
Eccentricity
0.00138
Inclination
96.9685°
RAAN
245.0909°
Arg. of periapsis
269.9832°
True anomaly
90.14595°
Mean anomaly
89.9874°
Eccentric anomaly
90.06667°
Mean motion
4.05622 °/min
Orbital period
88.75 mins
BSTAR
0.0039191
Loading maneuver chart data...
Computing Atmospheric mass density...

Documentation

Showing up to 5 results
|